Weather History for Albany, GA

Change the Weather History Date:

Monday, November 18, 2013

  Actual Average Record
Temperature  
Mean Temperature 69 °F 58 °F  
Max Temperature 80 °F 71 °F 85 °F (1958)
Min Temperature 58 °F 45 °F 24 °F (1970)
Degree Days  
Heating Degree Days 0 8  
Month to date heating degree days 100 104  
Since 1 July heating degree days 141 154  
Cooling Degree Days 4 1  
Month to date cooling degree days 18 24  
Year to date cooling degree days 2406 2527  
Growing Degree Days 20 (Base 50)    
Moisture  
Dew Point 69 °F    
Average Humidity 73    
Maximum Humidity 100    
Minimum Humidity 46    
Precipitation  
Precipitation 0.41 in 0.11 in 0.66 in (2003)
Month to date precipitation 1.39 1.60  
Year to date precipitation 44.28 43.23  
Sea Level Pressure  
Sea Level Pressure 29.98 in    
Wind  
Wind Speed 5 mph (WSW)    
Max Wind Speed 14 mph    
Max Gust Speed 22 mph    
Visibility 6 miles    
Events Fog , Rain    
T = Trace of Precipitation, MM = Missing Value Source: NWS Daily Summary

Daily Weather History Graph

Daily Weather History Graph

Search for Another Location

Airport:

Trip Planner

Search our weather history database for the weather conditions in past years. The results will help you decide how hot, cold, wet, or windy it might be!

Date:

Astronomy

Nov. 18, 2013 Rise Set
Actual Time 7:07 AM EST 5:36 PM EST
Civil Twilight 6:41 AM EST 6:02 PM EST
Nautical Twilight 6:12 AM EST 6:31 PM EST
Astronomical Twilight 5:43 AM EST 7:00 PM EST
Moon 6:38 PM EST (11/18) 7:54 AM EST (11/18)
Length of Visible Light 11h 20m
Length of Day
10h 28m
Full, 99% of the Moon is Illuminated
Nov 18
Full
Nov 25
Last Quarter
Dec 2
New
Dec 9
First Quarter
Dec 17
Full

Hourly Weather History & Observations

Time (EST) Temp. Heat Index Dew Point Humidity Pressure Visibility Wind Dir Wind Speed Gust Speed Precip Events Conditions
12:53 AM 71.1 °F - 70.0 °F 96% 30.01 in 9.0 mi SSW 9.2 mph - N/A   Overcast
1:53 AM 72.0 °F - 71.1 °F 97% 29.99 in 10.0 mi SW 8.1 mph - N/A   Overcast
2:53 AM 72.0 °F - 71.1 °F 97% 29.99 in 10.0 mi WSW 5.8 mph - N/A   Overcast
3:53 AM 72.0 °F - 71.1 °F 97% 29.97 in 10.0 mi SW 4.6 mph - N/A   Overcast
4:53 AM 72.0 °F - 71.1 °F 97% 29.97 in 6.0 mi WSW 3.5 mph - N/A   Overcast
5:02 AM 71.6 °F - 71.6 °F 100% 29.97 in 7.0 mi SW 3.5 mph - N/A   Overcast
5:45 AM 71.6 °F - 71.6 °F 100% 29.97 in 6.0 mi SW 8.1 mph - N/A   Overcast
5:53 AM 72.0 °F - 72.0 °F 100% 29.97 in 5.0 mi SW 8.1 mph - N/A   Overcast
6:24 AM 71.6 °F - 71.6 °F 100% 29.96 in 3.0 mi SW 4.6 mph - N/A   Overcast
6:53 AM 72.0 °F - 72.0 °F 100% 29.97 in 5.0 mi WSW 4.6 mph - N/A   Overcast
7:16 AM 71.6 °F - 71.6 °F 100% 29.98 in 2.0 mi WSW 4.6 mph - 0.04 in Rain Light Rain
7:23 AM 71.6 °F - 71.6 °F 100% 29.98 in 1.2 mi WSW 4.6 mph - 0.07 in Rain Heavy Rain
7:30 AM 71.6 °F - 71.6 °F 100% 29.98 in 2.0 mi West 4.6 mph - 0.07 in Rain Light Rain
7:38 AM 71.6 °F - 71.6 °F 100% 29.98 in 3.0 mi WNW 4.6 mph - 0.07 in Rain Light Rain
7:53 AM 72.0 °F - 72.0 °F 100% 29.99 in 2.5 mi North 3.5 mph - 0.07 in Rain Light Rain
8:12 AM 71.6 °F - 71.6 °F 100% 29.99 in 3.0 mi Calm Calm - 0.00 in Rain Light Rain
8:26 AM 71.6 °F - 71.6 °F 100% 30.00 in 1.0 mi Calm Calm - 0.06 in Rain Heavy Rain
8:33 AM 71.6 °F - 69.8 °F 94% 30.00 in 0.5 mi Calm Calm - 0.14 in Fog , Rain Rain
8:35 AM 71.6 °F - 69.8 °F 94% 30.00 in 1.0 mi Calm Calm - 0.14 in Rain Rain
8:53 AM 71.1 °F - 70.0 °F 96% 30.00 in 1.0 mi Calm Calm - 0.14 in Rain Light Rain
8:55 AM 71.6 °F - 69.8 °F 94% 30.00 in 3.0 mi Calm Calm - 0.00 in Rain Rain
9:53 AM 73.0 °F - 72.0 °F 96% 30.01 in 3.0 mi South 3.5 mph - 0.06 in   Overcast
10:53 AM 75.9 °F - 73.0 °F 91% 30.01 in 10.0 mi SW 5.8 mph - N/A   Mostly Cloudy
11:31 AM 75.2 °F - 73.4 °F 94% 30.01 in 10.0 mi WSW 3.5 mph - N/A   Overcast
11:33 AM 75.2 °F - 73.4 °F 94% 30.01 in 10.0 mi WSW 3.5 mph - N/A   Overcast
11:53 AM 77.0 °F - 72.0 °F 84% 30.01 in 10.0 mi WSW 5.8 mph - N/A   Mostly Cloudy
12:00 PM 77.0 °F - 71.6 °F 83% 30.01 in 10.0 mi SW 5.8 mph - N/A   Mostly Cloudy
12:53 PM 80.1 °F 83.6 °F 71.1 °F 74% 29.98 in 10.0 mi SW 8.1 mph - N/A   Overcast
12:55 PM 80.6 °F 84.6 °F 71.6 °F 74% 29.98 in 10.0 mi SW 4.6 mph - N/A   Mostly Cloudy
1:02 PM 78.8 °F - 71.6 °F 78% 29.97 in 8.0 mi SSW 4.6 mph - 0.00 in Rain Light Rain
1:12 PM 75.2 °F - 71.6 °F 89% 29.97 in 3.0 mi SW 4.6 mph - 0.01 in Rain Rain
1:19 PM 75.2 °F - 73.4 °F 94% 29.98 in 1.8 mi NW 6.9 mph - 0.04 in Rain Heavy Rain
1:35 PM 73.4 °F - 71.6 °F 94% 29.97 in 3.0 mi West 3.5 mph - 0.14 in Rain Light Rain
1:37 PM 73.4 °F - 71.6 °F 94% 29.97 in 6.0 mi Calm Calm - 0.14 in Rain Light Rain
1:53 PM 75.0 °F - 72.0 °F 90% 29.96 in 10.0 mi Calm Calm - 0.14 in   Mostly Cloudy
2:53 PM 78.1 °F - 71.1 °F 79% 29.95 in 10.0 mi West 3.5 mph - N/A   Overcast
3:53 PM 77.0 °F - 70.0 °F 79% 29.94 in 10.0 mi SW 5.8 mph - N/A   Clear
4:53 PM 75.0 °F - 71.1 °F 87% 29.93 in 10.0 mi SW 4.6 mph - N/A   Clear
5:53 PM 72.0 °F - 71.1 °F 97% 29.94 in 8.0 mi West 4.6 mph - N/A   Clear
6:50 PM 69.8 °F - 69.8 °F 100% 29.96 in 1.8 mi Calm Calm - N/A   Clear
6:53 PM 68.0 °F - 68.0 °F 100% 29.96 in 5.0 mi West 3.5 mph - N/A   Clear
7:01 PM 68.0 °F - 68.0 °F 100% 29.96 in 5.0 mi WNW 4.6 mph - N/A   Clear
7:53 PM 66.9 °F - 57.9 °F 73% 29.97 in 5.0 mi NW 3.5 mph - N/A   Haze
8:53 PM 66.9 °F - 53.1 °F 61% 30.00 in 10.0 mi North 8.1 mph - N/A   Clear
9:53 PM 64.0 °F - 46.0 °F 52% 30.02 in 10.0 mi NNW 6.9 mph - N/A   Clear
10:53 PM 61.0 °F - 39.0 °F 44% 30.03 in 10.0 mi North 5.8 mph - N/A   Clear
11:53 PM 57.9 °F - 37.9 °F 47% 30.03 in 10.0 mi North 5.8 mph - N/A   Clear